Simultaneous Nadir Overpasses (SNOs) Predictions

Prediction of SNOs between GOES-17 and METOP-C Satellite Orbit:

Table of predicted SNOs for the next 14.0 days since TLE Epoch: 9/5/2025
Index Date Time (GOES-17) GOES-17 Lat,Lon METOP-C Lat,Lon Distance(km) Time Diff (sec)
1 09/06/2025 15:38:11 0.12, -89.52 0.52, -91.29 200.95 80
2 09/07/2025 15:14:52 0.10, -89.52 -0.64, -86.30 367.70 80
3 09/09/2025 03:36:32 -0.12, -89.48 -0.44, -90.88 160.17 80
4 09/10/2025 03:13:13 -0.11, -89.48 0.72, -85.90 408.79 80
5 09/11/2025 15:34:44 0.13, -89.53 0.35, -90.45 105.21 80
6 09/12/2025 15:11:26 0.12, -89.53 -0.81, -85.46 463.65 80
7 09/14/2025 03:33:05 -0.14, -89.48 -0.25, -90.05 64.28 80
8 09/16/2025 15:31:17 0.16, -89.53 0.20, -89.60 9.30 80
9 09/19/2025 03:26:58 -0.16, -89.50 -0.08, -89.21 33.62 80
